Miscellaneous Local Product
Issued by NWS Hastings, NE

Home | Current Version | Previous Version | Graphics & Text | Print | Product List | Glossary On
Versions: 1 2 3 4 5 6 7 8 9 10 11 12 13 14 15 16 17 18 19 20 21 22 23 24 25 26 27 28 29 30 31 32 33 34 35 36 37 38 39 40 41 42 43 44 45 46 47 48 49 50
000
AXUS43 KGID 272102
MISGRI

GID CWA HOURLY WEATHER ROUNDUP
NATIONAL WEATHER SERVICE HASTINGS NE
400 PM CDT WED MAY 27 2015

NOTE: "FAIR" INDICATES FEW OR NO CLOUDS BELOW 12,000 FEET WITH NO
SIGNIFICANT WEATHER AND/OR OBSTRUCTIONS TO VISIBILITY.

...SOUTH CENTRAL NEBRASKA...

CITY           SKY/WX    TMP DP  RH WIND       PRES   REMARKS
GRAND ISLAND   PTSUNNY   82  41  23 S10       30.06F
HASTINGS       PTSUNNY   79  50  36 SE8       30.06F
KEARNEY        CLOUDY    66  59  77 SE9       30.09S
ORD            PTSUNNY   79  47  32 SE8       30.03F
YORK           MOSUNNY   81  45  28 SE7       30.07S
AURORA         PTSUNNY   81  43  25 S14G24    30.07S
LEXINGTON      CLOUDY    71  58  63 S17       30.06F
HOLDREGE       LGT RAIN  70  55  57 S10       30.09S
HEBRON         FAIR      82  38  20 S10       30.08S

...NEBRASKA PANHANDLE...

CITY           SKY/WX    TMP DP  RH WIND       PRES   REMARKS
CHADRON        TSTM      63  49  60 E10G37    29.97R VSB 3/4
ALLIANCE       PTSUNNY   64  51  62 SW23G30   30.02R
SCOTTSBLUFF    CLOUDY    62 N/A N/A SE7       30.02F
SIDNEY         PTSUNNY   72  55  55 S8        30.02F

...WESTERN AND NORTH CENTRAL NEBRASKA...

CITY           SKY/WX    TMP DP  RH WIND       PRES   REMARKS
VALENTINE      PTSUNNY   77  49  37 S18G29    30.00F
AINSWORTH      PTSUNNY   75  50  40 SE9       30.03F
ONEILL         PTSUNNY   78  46  31 S9        30.05F
BROKEN BOW     MOSUNNY   76  52  43 S18G25    30.04F
IMPERIAL       PTSUNNY   69  58  67 SE14      30.00F
NORTH PLATTE   MOSUNNY   75  55  49 S21G26    30.02F
MCCOOK         PTSUNNY   74  58  57 SE18      30.02F

...EASTERN NEBRASKA...

CITY           SKY/WX    TMP DP  RH WIND       PRES   REMARKS
NORFOLK        MOSUNNY   82  48  30 S7        30.04F
SO SIOUX CITY  SUNNY     84  49  29 S5        30.03S
TEKAMAH        SUNNY     85  50  29 S12       30.04S
COLUMBUS       MOSUNNY   82  45  26 S14       30.07S
ALBION         MOSUNNY   78  44  30 S9        30.06F
OMAHA EPPLEY   MOSUNNY   83  48  29 SW7       30.05S
OFFUTT AFB     MOSUNNY   82  53  36 W7        30.05S
MILLARD        MOSUNNY   82  49  32 W5        30.06S
LINCOLN        MOSUNNY   83  48  29 S12       30.06F
NEBRASKA CITY  MOSUNNY   80  43  26 S5        30.08S
BEATRICE       MOSUNNY   80  49  32 S9        30.08S
FALLS CITY     NOT AVBL

...NORTHERN KANSAS...

CITY           SKY/WX    TMP DP  RH WIND       PRES   REMARKS
GOODLAND       MOSUNNY   75  61  61 SE18G25   29.99F
HILL CITY      MOSUNNY   74  59  59 SE12      30.04F
NORTON         MOCLDY    75  55  50 SE13G18   30.03F
PHILLIPSBURG   MOSUNNY   81  57  44 SE13G18   30.05F
SMITH CENTER   SUNNY     75  57  53 SE17      30.06F
HAYS           MOSUNNY   79  61  53 SE18G28   30.04F
RUSSELL        MOSUNNY   79  61  53 SE17G26   30.04F
CONCORDIA      PTSUNNY   80  55  42 S8        30.08F
SALINA         PTSUNNY   81  62  52 SE14      30.08F
TOPEKA         MOSUNNY   81  52  36 SE7       30.09S



USA.gov is the U.S. government's official web portal to all federal, state and local government web resources and services.